SCP
0 0 0 0 0 0 0 0 0 0 0 0 0 0 0 0 0 0 0 0 0 0 0 0 0 0 0 0 0 0 0 0 0 0 0 0 0 0 0 0 0 0 0 0
0 0 0 0 0 0 0 0 0 0 0 0 0 0 0 0 0 0 0 0 0 0 0 0 0 0 0 0 0 0 0 0 0 0 0 0 0 0 0 0 0 0 0 0
0 0 0 0 0 0 0 0 0 0 0 0 0 0 0 0 0 0 0 0 0 0 0 0 0 0 0 0 0 0 0 0 0 0 0 0 0 0 0 0 0 0 0 0
0 0 0 0 0 0 0 0 0 0 0 0 0 0 0 0 0 0 0 0 0 0 0 0 0 0 0 0 0 0 0 0 0 0 0 0 0 0 0 0 0 0 0 0
0 0 0 0 0 0 0 0 0 0 0 0 0 0 0 0 0 0 0 0 0 0 0 0 0 0 0 0 0 0 0 0 0 0 0 0 0 0 0 0 0 0 0 0
0 0 0 0 0 0 0 0 0 0 0 0 0 0 0 0 0 0 0 0 0 0 0 0 0 0 0 0 0 0 0 0 0 0 0 0 0 0 0 0 0 0 0 0
0 0 0 0 0 0 0 0 0 0 0 0 0 0 0 0 0 0 0 0 0 0 0 0 0 0 0 0 0 0 0 0 0 0 0 0 0 0 0 0 0 0 0 0
0 0 0 0 0 0 0 0 0 0 0 0 0 0 0 0 0 0 0 0 0 0 0 0 0 0 0 0 0 0 0 0 0 0 0 0 0 0 0 0 0 0 0 0
0 0 0 0 0 0 0 0 0 0 0 0 0 0 0 0 0 0 0 0 0 0 0 0 0 0 0 0 0 0 0 0 0 0 0 0 0 0 0 0 0 0 0 0
0 0 0 0 0 0 0 0 0 0 0 0 0 0 0 0 0 0 0 0 0 0 0 0 0 0 0 0 0 0 0 0 0 0 0 0 0 0 0 0 0 0 0 0
0 0 0 0 0 0 0 0 0 0 0 0 0 0 0 0 0 0 0 0 0 0 0 0 0 0 0 0 0 0 0 0 0 0 0 0 0 0 0 0 0 0 0 0
0 0 0 0 0 0 0 0 0 0 0 0 0 0 0 0 0 0 0 0 0 0 0 0 0 0 0 0 0 0 0 0 0 0 0 0 0 0 0 0 0 0 0 0
0 0 0 0 0 0 0 0 0 0 0 0 0 0 0 0 0 0 0 0 0 0 0 0 0 0 0 0 0 0 0 0 0 0 0 0 0 0 0 0 0 0 0 0
0 0 0 0 0 0 0 0 0 0 0 0 0 0 0 0 0 0 0 0 0 0 0 0 0 0 0 0 0 0 0 0 0 0 0 0 0 0 0 0 0 0 0 0
0 0 0 0 0 0 0 0 0 0 0 0 0 0 0 0 0 0 0 0 0 0 0 0 0 0 0 0 0 0 0 0 0 0 0 0 0 0 0 0 0 0 0 0
0 0 0 0 0 0 0 0 0 0 0 0 0 0 0 0 0 0 0 0 0 0 0 0 0 0 0 0 0 0 0 0 0 0 0 0 0 0 0 0 0 0 0 0
0 0 0 0 0 0 0 0 0 0 0 0 0 0 0 0 0 0 0 0 0 0 0 0 0 0 0 0 0 0 0 0 0 0 0 0 0 0 0 0 0 0 0 0
0 0 0 0 0 0 0 0 0 0 0 0 0 0 0 0 0 0 0 0 0 0 0 0 0 0 0 0 0 0 0 0 0 0 0 0 0 0 0 0 0 0 0 0
0 0 0 0 0 0 0 0 0 0 0 0 0 0 0 0 0 0 0 0 0 0 0 0 0 0 0 0 0 0 0 0 0 0 0 0 0 0 0 0 0 0 0 0
0 0 0 0 0 0 0 0 0 0 0 0 0 0 0 0 0 0 0 0 0 0 0 0 0 0 0 0 0 0 0 0 0 0 0 0 0 0 0 0 0 0 0 0
0 0 0 0 0 0 0 0 0 0 0 0 0 0 0 0 0 0 0 0 0 0 0 0 0 0 0 0 0 0 0 0 0 0 0 0 0 0 0 0 0 0 0 0
0 0 0 0 0 0 0 0 0 0 0 0 0 0 0 0 0 0 0 0 0 0 0 0 0 0 0 0 0 0 0 0 0 0 0 0 0 0 0 0 0 0 0 0
0 0 0 0 0 0 0 0 0 0 0 0 0 0 0 0 0 0 0 0 0 0 0 0 0 0 0 0 0 0 0 0 0 0 0 0 0 0 0 0 0 0 0 0
0 0 0 0 0 0 0 0 0 0 0 0 0 0 0 0 0 0 0 0 0 0 0 0 0 0 0 0 0 0 0 0 0 0 0 0 0 0 0 0 0 0 0 0
0 0 0 0 0 0 0 0 0 0 0 0 0 0 0 0 0 0 0 0 0 0 0 0 0 0 0 0 0 0 0 0 0 0 0 0 0 0 0 0 0 0 0 0
0 0 0 0 0 0 0 0 0 0 0 0 0 0 0 0 0 0 0 0 0 0 0 0 0 0 0 0 0 0 0 0 0 0 0 0 0 0 0 0 0 0 0 0
0 0 0 0 0 0 0 0 0 0 0 0 0 0 0 0 0 0 0 0 0 0 0 0 0 0 0 0 0 0 0 0 0 0 0 0 0 0 0 0 0 0 0 0
Wind_Speed
8 7 7 8 8 9 10 11 11 8 6 3 3 5 6 6 7 8 8 7 7 7 6 6 6 6 6 6 5 5 5 4 4 3 3 2 1 1 1 1 1 1 2 2
8 7 7 9 9 10 10 9 9 8 5 1 3 5 6 7 8 8 8 8 7 7 7 7 6 6 6 5 5 5 4 4 3 3 3 2 2 1 1 1 1 2 2 2
7 5 8 8 7 8 7 7 7 8 2 4 5 6 7 7 8 8 8 7 7 7 7 7 7 6 6 5 5 4 4 4 3 3 3 2 2 1 1 1 1 2 2 2
6 6 8 1 1 4 6 5 5 3 2 4 3 3 5 6 7 7 7 7 7 7 7 7 7 6 6 6 5 5 5 4 4 3 3 2 1 1 1 1 1 2 2 2
6 8 7 3 3 4 5 5 3 3 3 3 4 5 5 5 6 6 6 5 6 6 7 7 7 7 7 6 5 5 5 5 4 3 3 2 1 1 1 2 2 2 1 2
6 7 6 1 3 1 5 5 3 4 5 5 6 5 4 7 6 6 6 5 6 7 7 8 7 7 7 6 6 5 5 4 4 3 3 2 1 1 1 2 2 3 2 2
9 8 4 2 3 4 6 2 3 3 5 6 4 2 7 8 7 7 6 6 6 7 7 7 7 8 7 7 6 5 5 4 3 3 2 2 1 1 2 2 2 2 2 2
7 7 2 4 5 3 3 3 3 3 4 5 5 7 8 8 8 8 7 7 6 6 6 7 8 8 8 7 5 5 4 4 3 3 2 2 1 2 2 2 2 2 2 3
4 2 4 1 1 2 2 2 2 4 5 6 7 7 8 8 8 7 7 6 6 7 7 7 7 8 7 6 5 5 4 4 3 3 2 2 2 2 2 3 3 2 2 2
4 2 1 2 2 1 1 2 3 4 6 7 7 8 9 8 7 7 7 7 6 7 7 7 7 7 6 6 5 5 4 4 3 3 3 2 2 2 2 2 2 2 3 3
6 3 3 3 2 2 3 4 5 6 6 7 8 8 8 8 7 6 6 6 6 5 6 7 7 6 6 6 6 5 4 4 3 3 2 2 2 2 3 2 3 4 4 4
5 3 3 2 3 4 5 5 6 7 8 8 8 9 9 8 7 7 6 6 6 6 6 6 6 6 6 5 5 5 4 3 3 2 2 2 1 1 1 3 3 5 6 7
4 3 1 3 4 5 5 6 7 8 8 9 8 9 9 8 7 7 7 6 6 6 6 6 6 5 5 5 5 4 3 3 3 2 2 2 2 2 2 3 6 7 8 8
3 3 4 5 5 5 6 7 8 8 9 9 9 9 9 8 7 7 7 6 6 6 6 6 6 5 5 5 5 4 4 4 4 3 2 2 2 2 2 3 2 2 5 8
6 5 6 6 7 7 8 9 9 9 10 10 9 9 9 8 8 7 6 7 7 6 6 6 6 5 5 4 4 4 4 3 3 2 2 2 3 3 3 3 4 4 4 3
5 6 8 9 9 9 9 10 10 10 10 10 10 9 9 8 8 7 7 7 7 7 6 6 5 5 4 4 4 4 3 2 3 3 3 3 3 3 3 4 4 4 5 4
8 9 10 11 11 10 10 9 10 10 10 10 10 10 9 9 8 8 7 7 6 5 5 5 5 4 4 4 4 3 3 4 5 4 3 3 3 3 4 4 5 5 5 4
9 9 10 11 11 11 10 10 10 11 10 10 11 10 9 9 8 8 7 7 6 6 5 4 4 4 4 3 3 2 2 2 2 2 2 2 3 4 4 5 5 6 6 4
9 9 10 10 10 11 11 10 10 10 10 11 10 10 9 8 8 8 8 7 6 6 5 4 3 4 3 2 2 3 2 2 2 2 2 2 4 4 4 5 5 6 6 6
9 10 11 11 11 11 11 11 11 10 10 10 10 9 9 8 8 8 7 6 4 3 5 5 5 4 3 3 4 3 2 3 3 2 3 3 4 4 4 5 6 6 6 6
10 11 11 11 11 11 11 11 11 11 10 10 10 9 8 8 8 7 7 5 5 4 5 6 4 4 3 2 5 4 3 3 3 3 3 3 4 5 5 5 6 6 6 7
9 10 11 11 11 11 10 10 10 11 10 10 10 9 9 9 8 7 6 3 5 5 5 5 4 3 2 3 4 4 3 3 3 3 3 4 5 5 5 6 6 6 7 7
9 9 10 11 11 11 11 10 11 10 10 10 9 9 8 7 6 6 5 5 5 6 5 3 4 5 3 5 4 4 3 4 4 4 4 4 5 5 5 6 6 7 7 7
9 9 9 10 11 11 11 11 10 8 9 8 8 8 7 6 5 5 4 6 5 6 4 4 6 5 6 6 4 4 3 4 4 4 5 5 5 5 5 6 6 6 6 7
8 9 10 11 11 10 10 11 10 10 9 7 8 8 7 5 5 5 4 6 7 7 5 6 8 7 6 5 4 4 3 3 4 5 5 5 6 5 5 5 6 6 6 6
7 7 8 8 7 8 9 9 8 8 8 8 7 7 6 5 5 5 5 6 8 6 5 5 6 7 5 4 3 3 3 3 3 4 5 5 6 6 5 6 7 6 6 6
8 7 7 8 8 8 8 8 8 8 8 8 7 7 7 6 6 5 5 5 5 5 4 4 4 4 3 3 3 3 3 3 3 4 4 4 5 5 5 6 6 6 6 6
Wind_Direction
276 278 263 259 252 241 247 267 280 289 282 249 189 173 161 156 155 157 163 166 169 168 160 159 161 160 158 152 154 161 160 156 151 150 149 147 161 198 239 265 283 300 306 311
258 251 253 259 255 248 251 259 269 276 282 167 143 152 159 165 168 170 170 173 174 173 167 166 166 163 160 155 155 160 161 156 151 153 150 153 181 220 255 281 302 314 324 324
261 258 253 246 247 246 249 252 266 273 269 169 180 180 176 176 179 176 172 171 174 175 173 170 168 166 163 159 158 159 156 152 150 152 154 171 185 192 243 279 311 324 331 332
265 258 253 314 124 250 261 262 261 277 213 196 188 172 165 178 178 171 170 172 173 173 170 169 164 163 160 159 163 164 162 163 162 164 164 173 192 204 248 266 286 304 318 327
258 257 263 218 192 218 245 250 233 225 199 171 142 157 162 162 163 163 164 166 165 165 164 162 163 162 163 164 169 174 170 167 166 166 165 177 200 247 260 268 284 291 309 318
251 265 268 95 118 197 255 235 166 191 190 177 188 220 144 143 151 152 150 150 154 159 159 160 164 166 168 171 177 179 173 169 167 171 180 196 216 246 264 270 275 288 315 312
245 256 266 74 130 196 248 33 115 173 183 187 201 39 107 137 143 143 146 148 152 157 160 164 168 169 173 179 184 180 174 174 176 184 190 201 220 246 255 258 275 293 303 298
240 250 247 127 177 225 21 77 134 142 158 162 125 110 124 132 136 141 145 149 153 157 160 163 169 174 177 180 178 173 172 177 180 190 209 200 220 251 259 262 257 262 276 287
282 324 58 130 156 67 73 124 134 140 142 143 138 133 133 133 136 141 143 145 151 152 153 157 167 174 173 169 170 168 171 179 186 196 208 223 236 246 253 248 261 281 292 303
256 238 210 186 160 155 142 140 134 142 146 149 141 137 138 135 138 141 142 146 151 153 154 156 164 168 165 163 168 170 176 182 188 199 208 211 244 252 268 281 283 287 300 310
249 241 218 204 193 166 139 131 135 141 148 149 142 141 137 135 137 138 142 145 149 153 153 154 156 160 164 164 167 172 179 188 196 199 201 231 252 297 294 314 319 300 308 312
270 245 250 192 172 165 157 148 145 147 146 147 144 141 138 136 137 142 144 144 146 151 151 151 156 161 163 164 169 174 179 190 200 201 208 231 229 227 251 258 250 250 259 274
274 255 248 157 161 158 151 143 145 147 149 145 140 141 140 136 139 142 144 148 151 152 151 151 154 157 159 165 172 179 188 198 217 218 222 231 241 255 257 235 229 234 239 245
206 177 176 174 160 153 145 141 141 142 144 141 138 140 138 137 140 145 150 150 149 149 151 153 156 156 158 168 178 185 200 198 221 225 237 250 259 265 271 283 279 260 228 225
212 213 184 158 150 150 150 147 146 147 146 143 142 143 142 143 145 146 147 148 148 152 155 159 160 159 166 175 185 198 213 211 217 237 243 249 258 265 273 283 289 294 296 238
188 171 165 164 163 162 161 160 157 154 153 150 147 146 146 146 144 144 150 157 160 161 161 163 163 163 170 179 193 200 201 206 245 246 247 252 257 270 280 286 288 291 294 303
183 179 175 173 172 171 168 166 161 157 155 154 150 147 147 148 146 148 155 158 159 158 162 167 168 170 176 184 204 206 195 177 201 236 250 264 274 280 286 288 293 297 299 308
198 190 182 175 173 168 166 164 159 155 153 150 149 151 154 156 155 155 156 155 155 156 161 167 171 178 177 179 208 230 214 211 212 233 250 267 284 283 286 291 295 297 299 295
177 173 173 172 170 165 161 160 157 153 151 152 154 157 159 159 158 158 159 162 164 165 164 161 170 187 172 172 228 215 227 236 242 250 260 261 266 278 287 292 296 299 303 305
158 160 161 163 165 162 158 157 154 152 153 154 155 158 158 158 158 159 163 169 172 157 152 158 169 180 184 181 242 237 227 244 259 264 268 275 281 287 290 295 298 302 303 304
153 155 158 159 159 159 157 157 155 153 154 157 160 160 158 158 162 164 173 169 157 156 156 161 185 187 192 199 220 248 248 255 265 269 276 283 290 292 296 299 301 303 303 303
154 155 156 157 157 155 155 157 157 156 156 160 163 162 160 161 166 168 177 171 152 159 186 179 184 162 187 239 232 244 252 259 267 274 281 288 290 292 296 300 300 301 303 306
154 154 155 157 157 153 154 157 158 158 159 162 163 165 166 166 171 174 172 170 167 169 201 182 138 142 203 239 249 252 258 267 274 278 284 287 290 293 296 297 298 301 304 308
152 152 152 153 153 153 156 157 155 156 159 161 163 165 168 169 173 181 165 148 155 164 196 145 148 175 223 246 253 258 261 268 276 285 293 295 295 296 296 298 301 307 313 316
154 153 153 157 161 159 155 154 154 158 163 162 163 167 174 175 171 167 162 157 157 179 190 164 175 201 232 248 256 264 273 292 304 307 304 302 301 303 305 308 310 312 314 316
157 160 159 168 161 156 158 162 163 164 165 162 163 165 165 162 164 164 170 172 171 192 209 185 181 202 229 244 254 267 277 277 273 276 292 298 303 307 313 316 315 315 317 323
160 154 156 161 160 166 165 166 165 165 166 165 161 160 162 163 167 170 173 172 173 184 199 203 200 204 219 237 251 264 273 281 288 294 298 303 310 316 321 319 319 321 324 328